| time (UTC) | temp C | wind direction | speed KPH | gust KPH | rain 1hr cm | rain 24hr cm | rain mn cm | humidity % | barometer mb |
| 20260508121303 | 8 | 238 | 3.2 | 11.3 | 0.00 | 0.00 | 0.00 | 83 | 1019.4 |
| 20260508120803 | 8 | 250 | 3.2 | 9.7 | 0.00 | 0.00 | 0.00 | 83 | 1019.3 |
| 20260508120309 | 8 | 271 | 1.6 | 9.7 | 0.00 | 0.00 | 0.00 | 83 | 1019.2 |
| 20260508120303 | 8 | 225 | 1.6 | 8.0 | 0.00 | 0.00 | 0.00 | 83 | 1019.2 |
| 20260508115306 | 8 | 254 | 1.6 | 9.7 | 0.00 | 0.00 | 0.00 | 83 | 1019.1 |
| 20260508114800 | 8 | 248 | 3.2 | 8.0 | 0.00 | 0.00 | 0.00 | 83 | 1019.0 |
| 20260508114303 | 8 | 265 | 3.2 | 8.0 | 0.00 | 0.00 | 0.00 | 83 | 1019.0 |
| 20260508113801 | 8 | 252 | 1.6 | 8.0 | 0.00 | 0.00 | 0.00 | 83 | 1019.0 |
| 20260508113301 | 8 | 232 | 1.6 | 8.0 | 0.00 | 0.00 | 0.00 | 83 | 1019.0 |
| 20260508112800 | 8 | 263 | 1.6 | 8.0 | 0.00 | 0.00 | 0.00 | 83 | 1019.0 |
| 20260508112301 | 8 | 252 | 3.2 | 11.3 | 0.00 | 0.00 | 0.00 | 83 | 1019.0 |
| 20260508111806 | 8 | 319 | 1.6 | 9.7 | 0.00 | 0.00 | 0.00 | 84 | 1019.0 |
| 20260508111802 | 8 | 246 | 3.2 | 11.3 | 0.00 | 0.00 | 0.00 | 83 | 1018.9 |
| 20260508110803 | 8 | 273 | 3.2 | 14.5 | 0.00 | 0.00 | 0.00 | 84 | 1019.0 |
| 20260508110300 | 8 | 242 | 3.2 | 14.5 | 0.00 | 0.00 | 0.00 | 84 | 1018.9 |
| 20260508105759 | 8 | 224 | 1.6 | 9.7 | 0.00 | 0.00 | 0.00 | 84 | 1018.7 |
| 20260508105300 | 8 | 275 | 1.6 | 12.9 | 0.00 | 0.00 | 0.00 | 85 | 1018.7 |
| 20260508104759 | 8 | 259 | 1.6 | 12.9 | 0.00 | 0.00 | 0.00 | 85 | 1018.7 |
| 20260508104301 | 8 | 268 | 1.6 | 8.0 | 0.00 | 0.00 | 0.00 | 85 | 1018.5 |
| 20260508103759 | 8 | 247 | 1.6 | 6.4 | 0.00 | 0.00 | 0.00 | 85 | 1018.5 |
| 20260508103305 | 8 | 267 | 3.2 | 11.3 | 0.00 | 0.00 | 0.00 | 85 | 1018.5 |
| 20260508103300 | 8 | 238 | 3.2 | 11.3 | 0.00 | 0.00 | 0.00 | 85 | 1018.5 |
| 20260508102259 | 8 | 269 | 3.2 | 8.0 | 0.00 | 0.00 | 0.00 | 86 | 1018.4 |
| 20260508101802 | 8 | 256 | 1.6 | 11.3 | 0.00 | 0.00 | 0.00 | 86 | 1018.5 |
| 20260508101757 | 8 | 256 | 3.2 | 8.0 | 0.00 | 0.00 | 0.00 | 86 | 1018.4 |
| 20260508100802 | 8 | 250 | 3.2 | 9.7 | 0.00 | 0.00 | 0.00 | 86 | 1018.5 |
| 20260508100757 | 8 | 238 | 3.2 | 11.3 | 0.00 | 0.00 | 0.00 | 86 | 1018.5 |
| 20260508095757 | 8 | 256 | 4.8 | 14.5 | 0.00 | 0.00 | 0.00 | 86 | 1018.4 |
| 20260508095257 | 8 | 222 | 4.8 | 14.5 | 0.00 | 0.00 | 0.00 | 86 | 1018.4 |
| 20260508094758 | 8 | 211 | 4.8 | 16.1 | 0.00 | 0.00 | 0.00 | 87 | 1018.4 |
| 20260508094255 | 8 | 252 | 4.8 | 16.1 | 0.00 | 0.00 | 0.00 | 87 | 1018.3 |
| 20260508093756 | 8 | 173 | 6.4 | 14.5 | 0.00 | 0.00 | 0.00 | 87 | 1018.2 |
| 20260508093300 | 8 | 217 | 6.4 | 12.9 | 0.00 | 0.00 | 0.00 | 87 | 1018.0 |
| 20260508093256 | 8 | 223 | 6.4 | 14.5 | 0.00 | 0.00 | 0.00 | 87 | 1018.1 |
| 20260508092906 | 8 | 221 | 6.4 | 16.1 | 0.00 | 0.00 | 0.00 | 87 | 1018.1 |
| 20260508091754 | 8 | 208 | 8.0 | 16.1 | 0.00 | 0.00 | 0.00 | 87 | 1018.0 |
| 20260508091253 | 8 | 235 | 8.0 | 16.1 | 0.00 | 0.00 | 0.00 | 87 | 1018.0 |
| 20260508090752 | 8 | 229 | 6.4 | 16.1 | 0.00 | 0.00 | 0.00 | 87 | 1018.0 |
| 20260508090252 | 8 | 256 | 6.4 | 16.1 | 0.00 | 0.00 | 0.00 | 87 | 1017.9 |
| 20260508085752 | 8 | 205 | 6.4 | 16.1 | 0.00 | 0.00 | 0.00 | 87 | 1017.7 |
| 20260508085252 | 8 | 216 | 8.0 | 14.5 | 0.00 | 0.00 | 0.00 | 87 | 1017.6 |
| 20260508084757 | 8 | 205 | 8.0 | 16.1 | 0.00 | 0.00 | 0.00 | 87 | 1017.6 |
| 20260508084751 | 8 | 240 | 8.0 | 14.5 | 0.00 | 0.00 | 0.00 | 87 | 1017.6 |
| 20260508083749 | 8 | 222 | 8.0 | 16.1 | 0.00 | 0.00 | 0.00 | 87 | 1017.6 |
| 20260508083249 | 8 | 203 | 8.0 | 16.1 | 0.00 | 0.00 | 0.00 | 87 | 1017.7 |
| 20260508082750 | 8 | 225 | 6.4 | 16.1 | 0.00 | 0.00 | 0.00 | 87 | 1017.7 |
| 20260508082250 | 8 | 210 | 4.8 | 14.5 | 0.00 | 0.00 | 0.00 | 87 | 1017.7 |
| 20260508081748 | 8 | 212 | 4.8 | 12.9 | 0.00 | 0.00 | 0.00 | 87 | 1017.7 |
| 20260508081249 | 8 | 241 | 3.2 | 12.9 | 0.00 | 0.00 | 0.00 | 87 | 1017.7 |
| 20260508080750 | 8 | 298 | 3.2 | 16.1 | 0.00 | 0.00 | 0.00 | 87 | 1017.5 |
| 20260508080248 | 8 | 216 | 3.2 | 16.1 | 0.00 | 0.00 | 0.00 | 87 | 1017.5 |
| 20260508075752 | 8 | 192 | 3.2 | 14.5 | 0.00 | 0.00 | 0.00 | 86 | 1017.4 |
| 20260508075747 | 8 | 209 | 4.8 | 14.5 | 0.00 | 0.00 | 0.00 | 86 | 1017.4 |
| 20260508074748 | 8 | 220 | 6.4 | 14.5 | 0.00 | 0.00 | 0.00 | 86 | 1017.3 |
| 20260508074244 | 8 | 203 | 3.2 | 14.5 | 0.00 | 0.00 | 0.00 | 86 | 1017.3 |
| 20260508073745 | 8 | 250 | 3.2 | 9.7 | 0.00 | 0.00 | 0.00 | 86 | 1017.4 |
| 20260508073248 | 8 | 246 | 3.2 | 14.5 | 0.00 | 0.00 | 0.00 | 85 | 1017.4 |
| 20260508073244 | 8 | 254 | 3.2 | 9.7 | 0.00 | 0.00 | 0.00 | 86 | 1017.3 |
| 20260508072245 | 8 | 236 | 3.2 | 14.5 | 0.00 | 0.00 | 0.00 | 85 | 1017.3 |
| 20260508071744 | 8 | 266 | 3.2 | 12.9 | 0.00 | 0.00 | 0.00 | 85 | 1017.3 |
| 20260508071244 | 8 | 214 | 4.8 | 20.9 | 0.00 | 0.00 | 0.00 | 84 | 1017.2 |
| 20260508070744 | 8 | 229 | 8.0 | 20.9 | 0.00 | 0.00 | 0.00 | 84 | 1017.2 |
| 20260508070245 | 8 | 210 | 8.0 | 16.1 | 0.00 | 0.00 | 0.00 | 84 | 1017.2 |
| 20260508065746 | 8 | 229 | 8.0 | 19.3 | 0.00 | 0.00 | 0.00 | 84 | 1017.2 |
| 20260508065249 | 8 | 221 | 4.8 | 12.9 | 0.00 | 0.00 | 0.00 | 84 | 1017.2 |
| 20260508065245 | 8 | 231 | 6.4 | 19.3 | 0.00 | 0.00 | 0.00 | 84 | 1017.1 |
| 20260508064245 | 8 | 246 | 4.8 | 12.9 | 0.00 | 0.00 | 0.00 | 84 | 1017.2 |
| 20260508063746 | 8 | 205 | 6.4 | 14.5 | 0.00 | 0.00 | 0.00 | 83 | 1017.2 |
| 20260508063251 | 9 | 231 | 6.4 | 14.5 | 0.00 | 0.00 | 0.00 | 83 | 1017.2 |
| 20260508063246 | 9 | 234 | 6.4 | 14.5 | 0.00 | 0.00 | 0.00 | 83 | 1017.2 |
| 20260508062244 | 9 | 228 | 6.4 | 12.9 | 0.00 | 0.00 | 0.00 | 82 | 1017.2 |
| 20260508061743 | 9 | 191 | 6.4 | 12.9 | 0.00 | 0.00 | 0.00 | 82 | 1017.2 |
| 20260508061244 | 9 | 208 | 4.8 | 11.3 | 0.00 | 0.00 | 0.00 | 82 | 1017.2 |
| 20260508060744 | 9 | 273 | 6.4 | 11.3 | 0.00 | 0.00 | 0.00 | 81 | 1017.2 |
| 20260508060243 | 9 | 227 | 6.4 | 14.5 | 0.00 | 0.00 | 0.00 | 81 | 1017.3 |
| 20260508055743 | 9 | 234 | 6.4 | 14.5 | 0.00 | 0.00 | 0.00 | 81 | 1017.2 |
| 20260508055249 | 10 | 191 | 6.4 | 17.7 | 0.00 | 0.00 | 0.00 | 80 | 1017.2 |
| 20260508055243 | 9 | 219 | 6.4 | 17.7 | 0.00 | 0.00 | 0.00 | 81 | 1017.2 |
| 20260508054856 | 10 | 219 | 6.4 | 19.3 | 0.00 | 0.00 | 0.00 | 80 | 1017.2 |
| 20260508053747 | 10 | 263 | 4.8 | 14.5 | 0.00 | 0.00 | 0.00 | 79 | 1017.2 |
| 20260508053742 | 10 | 246 | 4.8 | 19.3 | 0.00 | 0.00 | 0.00 | 80 | 1017.3 |
| 20260508053241 | 10 | 277 | 4.8 | 14.5 | 0.00 | 0.00 | 0.00 | 79 | 1017.2 |
| 20260508052855 | 10 | 297 | 4.8 | 14.5 | 0.00 | 0.00 | 0.00 | 79 | 1017.2 |
| 20260508051742 | 10 | 211 | 4.8 | 12.9 | 0.00 | 0.00 | 0.00 | 79 | 1017.2 |
| 20260508051242 | 10 | 222 | 4.8 | 16.1 | 0.00 | 0.00 | 0.00 | 78 | 1017.2 |
| 20260508050742 | 10 | 207 | 4.8 | 16.1 | 0.00 | 0.00 | 0.00 | 78 | 1017.2 |
| 20260508050238 | 10 | 220 | 4.8 | 17.7 | 0.00 | 0.00 | 0.00 | 77 | 1017.1 |
| 20260508045740 | 10 | 257 | 4.8 | 17.7 | 0.00 | 0.00 | 0.00 | 77 | 1017.0 |
| 20260508045240 | 10 | 223 | 4.8 | 16.1 | 0.00 | 0.00 | 0.00 | 77 | 1017.0 |
| 20260508044743 | 11 | 215 | 3.2 | 11.3 | 0.00 | 0.00 | 0.00 | 76 | 1017.0 |
| 20260508044739 | 10 | 215 | 4.8 | 11.3 | 0.00 | 0.00 | 0.00 | 76 | 1017.0 |
| 20260508043739 | 11 | 310 | 3.2 | 11.3 | 0.00 | 0.00 | 0.00 | 76 | 1017.1 |
| 20260508043239 | 11 | 243 | 3.2 | 11.3 | 0.00 | 0.00 | 0.00 | 75 | 1017.1 |
| 20260508042738 | 11 | 254 | 3.2 | 11.3 | 0.00 | 0.00 | 0.00 | 75 | 1017.0 |
| 20260508042239 | 11 | 236 | 3.2 | 9.7 | 0.00 | 0.00 | 0.00 | 75 | 1017.1 |
| 20260508041740 | 11 | 257 | 3.2 | 8.0 | 0.00 | 0.00 | 0.00 | 74 | 1017.1 |
| 20260508041237 | 11 | 259 | 3.2 | 8.0 | 0.00 | 0.00 | 0.00 | 74 | 1017.1 |
| 20260508040736 | 11 | 240 | 3.2 | 12.9 | 0.00 | 0.00 | 0.00 | 74 | 1017.0 |
| 20260508040237 | 12 | 238 | 3.2 | 12.9 | 0.00 | 0.00 | 0.00 | 73 | 1017.0 |
| 20260508035736 | 12 | 255 | 1.6 | 8.0 | 0.00 | 0.00 | 0.00 | 73 | 1017.0 |
| 20260508035238 | 12 | 242 | 3.2 | 14.5 | 0.00 | 0.00 | 0.00 | 72 | 1016.8 |
| 20260508034737 | 12 | 250 | 4.8 | 14.5 | 0.00 | 0.00 | 0.00 | 71 | 1016.7 |
| 20260508034238 | 12 | 228 | 4.8 | 14.5 | 0.00 | 0.00 | 0.00 | 70 | 1016.7 |
| 20260508033738 | 13 | 224 | 6.4 | 16.1 | 0.00 | 0.00 | 0.00 | 69 | 1016.6 |
| 20260508033238 | 13 | 211 | 8.0 | 16.1 | 0.00 | 0.00 | 0.00 | 68 | 1016.4 |
| 20260508032736 | 13 | 226 | 6.4 | 14.5 | 0.00 | 0.00 | 0.00 | 68 | 1016.4 |
| 20260508032235 | 13 | 261 | 6.4 | 14.5 | 0.00 | 0.00 | 0.00 | 67 | 1016.3 |
| 20260508031735 | 13 | 212 | 8.0 | 14.5 | 0.00 | 0.00 | 0.00 | 66 | 1016.3 |
| 20260508031236 | 13 | 227 | 6.4 | 12.9 | 0.00 | 0.00 | 0.00 | 66 | 1016.2 |
| 20260508030736 | 14 | 218 | 3.2 | 11.3 | 0.00 | 0.00 | 0.00 | 66 | 1016.2 |
| 20260508030239 | 15 | 238 | 3.2 | 14.5 | 0.00 | 0.00 | 0.00 | 64 | 1016.1 |
| 20260508030235 | 14 | 217 | 1.6 | 8.0 | 0.00 | 0.00 | 0.00 | 65 | 1016.1 |
| 20260508025240 | 15 | 225 | 3.2 | 12.9 | 0.00 | 0.00 | 0.00 | 61 | 1016.2 |
| 20260508025233 | 15 | 235 | 4.8 | 14.5 | 0.00 | 0.00 | 0.00 | 64 | 1016.2 |
| 20260508024733 | 15 | 217 | 3.2 | 12.9 | 0.00 | 0.00 | 0.00 | 62 | 1016.2 |
| 20260508023733 | 15 | 195 | 3.2 | 9.7 | 0.00 | 0.00 | 0.00 | 60 | 1016.2 |
| 20260508023233 | 16 | 246 | 3.2 | 11.3 | 0.00 | 0.00 | 0.00 | 59 | 1016.2 |
| 20260508022734 | 16 | 240 | 3.2 | 11.3 | 0.00 | 0.00 | 0.00 | 59 | 1016.2 |
| 20260508022237 | 16 | 241 | 3.2 | 11.3 | 0.00 | 0.00 | 0.00 | 60 | 1016.2 |
| 20260508022233 | 16 | 279 | 4.8 | 11.3 | 0.00 | 0.00 | 0.00 | 59 | 1016.2 |
| 20260508021233 | 16 | 303 | 4.8 | 14.5 | 0.00 | 0.00 | 0.00 | 60 | 1016.2 |
| 20260508020733 | 16 | 296 | 4.8 | 14.5 | 0.00 | 0.00 | 0.00 | 58 | 1016.2 |
| 20260508020234 | 17 | 250 | 3.2 | 12.9 | 0.00 | 0.00 | 0.00 | 59 | 1016.1 |
| 20260508015734 | 17 | 271 | 4.8 | 14.5 | 0.00 | 0.00 | 0.00 | 60 | 1016.1 |
| 20260508015238 | 17 | 242 | 3.2 | 14.5 | 0.00 | 0.00 | 0.00 | 60 | 1016.0 |
| 20260508015234 | 17 | 248 | 3.2 | 14.5 | 0.00 | 0.00 | 0.00 | 60 | 1016.1 |
| 20260508014233 | 17 | 215 | 3.2 | 14.5 | 0.00 | 0.00 | 0.00 | 60 | 1016.1 |
| 20260508013732 | 17 | 203 | 4.8 | 14.5 | 0.00 | 0.00 | 0.00 | 60 | 1016.1 |
| 20260508013232 | 18 | 240 | 6.4 | 14.5 | 0.00 | 0.00 | 0.00 | 57 | 1016.0 |
| 20260508012733 | 18 | 221 | 6.4 | 14.5 | 0.00 | 0.00 | 0.00 | 57 | 1016.0 |
| 20260508012233 | 18 | 232 | 6.4 | 16.1 | 0.00 | 0.00 | 0.00 | 57 | 1016.1 |
| 20260508011734 | 18 | 148 | 4.8 | 16.1 | 0.00 | 0.00 | 0.00 | 56 | 1016.2 |
| 20260508011232 | 18 | 309 | 6.4 | 14.5 | 0.00 | 0.00 | 0.00 | 57 | 1016.3 |
| 20260508010734 | 19 | 194 | 8.0 | 16.1 | 0.00 | 0.00 | 0.00 | 57 | 1016.3 |
| 20260508010232 | 19 | 214 | 8.0 | 17.7 | 0.00 | 0.00 | 0.00 | 56 | 1016.4 |
| 20260508005732 | 19 | 250 | 6.4 | 17.7 | 0.00 | 0.00 | 0.00 | 56 | 1016.3 |
| 20260508005233 | 20 | 263 | 4.8 | 14.5 | 0.00 | 0.00 | 0.00 | 55 | 1016.3 |
| 20260508004738 | 20 | 282 | 4.8 | 11.3 | 0.00 | 0.00 | 0.00 | 57 | 1016.2 |
| 20260508004732 | 20 | 227 | 3.2 | 14.5 | 0.00 | 0.00 | 0.00 | 56 | 1016.2 |
| 20260508004232 | 20 | 318 | 3.2 | 11.3 | 0.00 | 0.00 | 0.00 | 58 | 1016.2 |
| 20260508003232 | 20 | 286 | 4.8 | 14.5 | 0.00 | 0.00 | 0.00 | 55 | 1016.2 |
| 20260508002732 | 20 | 215 | 4.8 | 14.5 | 0.00 | 0.00 | 0.00 | 54 | 1016.3 |
| 20260508002232 | 21 | 247 | 3.2 | 14.5 | 0.00 | 0.00 | 0.00 | 56 | 1016.2 |
| 20260508001732 | 21 | 273 | 3.2 | 14.5 | 0.00 | 0.00 | 0.00 | 56 | 1016.3 |
| 20260508001232 | 21 | 282 | 3.2 | 11.3 | 0.00 | 0.00 | 0.00 | 55 | 1016.3 |
| 20260508000732 | 21 | 276 | 4.8 | 16.1 | 0.00 | 0.00 | 0.00 | 53 | 1016.4 |
| 20260508000238 | 21 | 237 | 6.4 | 19.3 | 0.00 | 0.00 | 0.00 | 56 | 1016.4 |
| 20260508000234 | 21 | 285 | 3.2 | 17.7 | 0.00 | 0.00 | 0.00 | 56 | 1016.3 |
| 20260507235730 | 21 | 229 | 3.2 | 17.7 | 0.00 | 0.00 | 0.00 | 55 | 1016.4 |
| 20260507234734 | 21 | 173 | 3.2 | 14.5 | 0.00 | 0.00 | 0.00 | 56 | 1016.1 |
| 20260507234730 | 21 | 286 | 6.4 | 19.3 | 0.00 | 0.00 | 0.00 | 57 | 1016.4 |
| 20260507234343 | 21 | 166 | 3.2 | 9.7 | 0.00 | 0.00 | 0.00 | 52 | 1016.3 |
| 20260507233843 | 22 | 202 | 1.6 | 9.7 | 0.00 | 0.00 | 0.00 | 53 | 1016.4 |
| 20260507232736 | 22 | 185 | 1.6 | 6.4 | 0.00 | 0.00 | 0.00 | 56 | 1016.6 |
| 20260507232730 | 22 | 153 | 1.6 | 6.4 | 0.00 | 0.00 | 0.00 | 53 | 1016.4 |
| 20260507232344 | 21 | 157 | 1.6 | 6.4 | 0.00 | 0.00 | 0.00 | 55 | 1016.7 |
| 20260507231844 | 21 | 53 | 1.6 | 6.4 | 0.00 | 0.00 | 0.00 | 54 | 1016.7 |
| 20260507230733 | 21 | 9 | 1.6 | 8.0 | 0.00 | 0.00 | 0.00 | 59 | 1016.9 |
| 20260507230728 | 21 | 80 | 1.6 | 6.4 | 0.00 | 0.00 | 0.00 | 54 | 1016.8 |
| 20260507225728 | 21 | 331 | 1.6 | 8.0 | 0.00 | 0.00 | 0.00 | 56 | 1017.0 |
| 20260507225229 | 21 | 302 | 1.6 | 6.4 | 0.00 | 0.00 | 0.00 | 56 | 1017.1 |
| 20260507224732 | 20 | 329 | 1.6 | 4.8 | 0.00 | 0.00 | 0.00 | 59 | 1017.3 |
| 20260507224727 | 20 | 255 | 1.6 | 4.8 | 0.00 | 0.00 | 0.00 | 57 | 1017.2 |
| 20260507223729 | 20 | 262 | 3.2 | 9.7 | 0.00 | 0.00 | 0.00 | 57 | 1017.3 |
| 20260507223724 | 20 | 54 | 3.2 | 9.7 | 0.00 | 0.00 | 0.00 | 59 | 1017.5 |
| 20260507222722 | 20 | 17 | 3.2 | 6.4 | 0.00 | 0.00 | 0.00 | 58 | 1017.5 |
| 20260507222222 | 20 | 29 | 3.2 | 6.4 | 0.00 | 0.00 | 0.00 | 56 | 1017.5 |
| 20260507221722 | 20 | 329 | 3.2 | 6.4 | 0.00 | 0.00 | 0.00 | 58 | 1017.6 |
| 20260507221221 | 20 | 219 | 3.2 | 9.7 | 0.00 | 0.00 | 0.00 | 55 | 1017.7 |
| 20260507220722 | 20 | 187 | 3.2 | 9.7 | 0.00 | 0.00 | 0.00 | 57 | 1017.7 |
| 20260507220223 | 19 | 172 | 3.2 | 9.7 | 0.00 | 0.00 | 0.00 | 61 | 1017.7 |
| 20260507215722 | 19 | 185 | 3.2 | 9.7 | 0.00 | 0.00 | 0.00 | 58 | 1017.8 |
| 20260507215221 | 19 | 168 | 1.6 | 6.4 | 0.00 | 0.00 | 0.00 | 56 | 1017.9 |
| 20260507214726 | 19 | 38 | 1.6 | 9.7 | 0.00 | 0.00 | 0.00 | 62 | 1018.1 |
| 20260507214722 | 20 | 165 | 1.6 | 6.4 | 0.00 | 0.00 | 0.00 | 59 | 1018.0 |
| 20260507213721 | 19 | 280 | 1.6 | 9.7 | 0.00 | 0.00 | 0.00 | 58 | 1018.1 |
| 20260507213226 | 19 | 65 | 3.2 | 11.3 | 0.00 | 0.00 | 0.00 | 62 | 1018.1 |
| 20260507213222 | 19 | 138 | 1.6 | 11.3 | 0.00 | 0.00 | 0.00 | 62 | 1018.2 |
| 20260507212221 | 19 | 331 | 1.6 | 9.7 | 0.00 | 0.00 | 0.00 | 60 | 1018.3 |
| 20260507211720 | 19 | 166 | 1.6 | 9.7 | 0.00 | 0.00 | 0.00 | 65 | 1018.2 |
| 20260507211221 | 18 | 132 | 3.2 | 12.9 | 0.00 | 0.00 | 0.00 | 65 | 1018.3 |
| 20260507210720 | 18 | 184 | 3.2 | 12.9 | 0.00 | 0.00 | 0.00 | 61 | 1018.4 |
| 20260507210222 | 18 | 0 | 3.2 | 11.3 | 0.00 | 0.00 | 0.00 | 62 | 1018.5 |
| 20260507210218 | 18 | 169 | 3.2 | 11.3 | 0.00 | 0.00 | 0.00 | 58 | 1018.4 |
| 20260507205219 | 18 | 166 | 4.8 | 11.3 | 0.00 | 0.00 | 0.00 | 61 | 1018.6 |
| 20260507204723 | 18 | 13 | 1.6 | 9.7 | 0.00 | 0.00 | 0.00 | 62 | 1018.7 |
| 20260507204717 | 18 | 180 | 3.2 | 9.7 | 0.00 | 0.00 | 0.00 | 61 | 1018.6 |
| 20260507203718 | 18 | 59 | 1.6 | 9.7 | 0.00 | 0.00 | 0.00 | 62 | 1018.7 |
| 20260507203218 | 18 | 59 | 3.2 | 11.3 | 0.00 | 0.00 | 0.00 | 63 | 1018.8 |
| 20260507202723 | 18 | 163 | 1.6 | 6.4 | 0.00 | 0.00 | 0.00 | 67 | 1018.9 |
| 20260507202717 | 18 | 16 | 3.2 | 11.3 | 0.00 | 0.00 | 0.00 | 63 | 1018.8 |
| 20260507201718 | 18 | 18 | 3.2 | 6.4 | 0.00 | 0.00 | 0.00 | 62 | 1018.9 |
| 20260507201221 | 17 | 62 | 1.6 | 8.0 | 0.00 | 0.00 | 0.00 | 65 | 1019.1 |
| 20260507201217 | 17 | 9 | 3.2 | 6.4 | 0.00 | 0.00 | 0.00 | 65 | 1019.0 |
| 20260507200217 | 17 | 277 | 1.6 | 8.0 | 0.00 | 0.00 | 0.00 | 61 | 1019.1 |
| 20260507195721 | 17 | 169 | 3.2 | 8.0 | 0.00 | 0.00 | 0.00 | 64 | 1019.2 |
| 20260507195716 | 17 | 178 | 3.2 | 11.3 | 0.00 | 0.00 | 0.00 | 65 | 1019.3 |
| 20260507195329 | 17 | 166 | 3.2 | 11.3 | 0.00 | 0.00 | 0.00 | 65 | 1019.3 |
| 20260507194216 | 17 | 326 | 3.2 | 8.0 | 0.00 | 0.00 | 0.00 | 67 | 1019.3 |
| 20260507193717 | 17 | 5 | 3.2 | 8.0 | 0.00 | 0.00 | 0.00 | 64 | 1019.4 |
| 20260507193214 | 17 | 340 | 4.8 | 11.3 | 0.00 | 0.00 | 0.00 | 68 | 1019.4 |
| 20260507192715 | 17 | 333 | 4.8 | 11.3 | 0.00 | 0.00 | 0.00 | 68 | 1019.4 |
| 20260507192213 | 17 | 25 | 1.6 | 9.7 | 0.00 | 0.00 | 0.00 | 64 | 1019.5 |
| 20260507191718 | 17 | 185 | 1.6 | 6.4 | 0.00 | 0.00 | 0.00 | 66 | 1019.6 |
| 20260507191714 | 17 | 112 | 1.6 | 9.7 | 0.00 | 0.00 | 0.00 | 70 | 1019.6 |
| 20260507190713 | 17 | 213 | 1.6 | 6.4 | 0.00 | 0.00 | 0.00 | 66 | 1019.7 |
| 20260507190212 | 16 | 46 | 3.2 | 6.4 | 0.00 | 0.00 | 0.00 | 64 | 1019.7 |
| 20260507185712 | 16 | 204 | 3.2 | 12.9 | 0.00 | 0.00 | 0.00 | 65 | 1019.7 |
| 20260507185216 | 16 | 5 | 3.2 | 12.9 | 0.00 | 0.00 | 0.00 | 68 | 1019.9 |
| 20260507185210 | 16 | 14 | 4.8 | 14.5 | 0.00 | 0.00 | 0.00 | 66 | 1019.9 |
| 20260507184208 | 16 | 5 | 6.4 | 14.5 | 0.00 | 0.00 | 0.00 | 69 | 1019.9 |
| 20260507183709 | 16 | 21 | 3.2 | 12.9 | 0.00 | 0.00 | 0.00 | 72 | 1019.8 |
| 20260507183207 | 16 | 291 | 1.6 | 6.4 | 0.00 | 0.00 | 0.00 | 69 | 1019.9 |
| 20260507182708 | 16 | 204 | 1.6 | 6.4 | 0.00 | 0.00 | 0.00 | 71 | 1019.9 |
| 20260507182207 | 15 | 248 | 1.6 | 4.8 | 0.00 | 0.00 | 0.00 | 72 | 1019.9 |
| 20260507181713 | 15 | 179 | 1.6 | 6.4 | 0.00 | 0.00 | 0.00 | 70 | 1020.1 |
| 20260507181708 | 15 | 245 | 1.6 | 6.4 | 0.00 | 0.00 | 0.00 | 69 | 1020.0 |
| 20260507180709 | 14 | 177 | 1.6 | 6.4 | 0.00 | 0.00 | 0.00 | 72 | 1020.1 |
| 20260507180212 | 14 | 30 | 1.6 | 4.8 | 0.00 | 0.00 | 0.00 | 72 | 1020.2 |
| 20260507180208 | 14 | 35 | 0.0 | 3.2 | 0.00 | 0.00 | 0.00 | 70 | 1020.1 |
| 20260507175206 | 14 | 31 | 1.6 | 4.8 | 0.00 | 0.00 | 0.00 | 74 | 1020.2 |
| 20260507174705 | 14 | 312 | 3.2 | 9.7 | 0.00 | 0.00 | 0.00 | 71 | 1020.3 |
| 20260507174205 | 15 | 11 | 4.8 | 9.7 | 0.00 | 0.00 | 0.00 | 72 | 1020.2 |
| 20260507173703 | 15 | 349 | 4.8 | 11.3 | 0.00 | 0.00 | 0.00 | 71 | 1020.3 |
| 20260507173203 | 15 | 329 | 4.8 | 11.3 | 0.00 | 0.00 | 0.00 | 72 | 1020.3 |
| 20260507172704 | 15 | 0 | 4.8 | 9.7 | 0.00 | 0.00 | 0.00 | 75 | 1020.4 |
| 20260507172204 | 14 | 10 | 3.2 | 8.0 | 0.00 | 0.00 | 0.00 | 77 | 1020.4 |
| 20260507171704 | 13 | 279 | 1.6 | 6.4 | 0.00 | 0.00 | 0.00 | 74 | 1020.4 |
| 20260507171207 | 13 | 323 | 0.0 | 3.2 | 0.00 | 0.00 | 0.00 | 78 | 1020.3 |
| 20260507171203 | 13 | 324 | 0.0 | 3.2 | 0.00 | 0.00 | 0.00 | 78 | 1020.4 |
| 20260507170205 | 13 | 322 | 0.0 | 3.2 | 0.00 | 0.00 | 0.00 | 79 | 1020.3 |
| 20260507165704 | 13 | 321 | 1.6 | 3.2 | 0.00 | 0.00 | 0.00 | 78 | 1020.3 |
| 20260507165203 | 13 | 314 | 1.6 | 3.2 | 0.00 | 0.00 | 0.00 | 76 | 1020.3 |
| 20260507164705 | 13 | 316 | 1.6 | 3.2 | 0.00 | 0.00 | 0.00 | 78 | 1020.4 |
| 20260507164204 | 13 | 9 | 1.6 | 4.8 | 0.00 | 0.00 | 0.00 | 79 | 1020.4 |
| 20260507163704 | 12 | 5 | 1.6 | 4.8 | 0.00 | 0.00 | 0.00 | 78 | 1020.4 |
| 20260507163203 | 12 | 9 | 1.6 | 4.8 | 0.00 | 0.00 | 0.00 | 79 | 1020.4 |
| 20260507162704 | 13 | 17 | 1.6 | 4.8 | 0.00 | 0.00 | 0.00 | 79 | 1020.4 |
| 20260507162203 | 13 | 241 | 1.6 | 3.2 | 0.00 | 0.00 | 0.00 | 79 | 1020.4 |
| 20260507161703 | 12 | 273 | 1.6 | 4.8 | 0.00 | 0.00 | 0.00 | 79 | 1020.4 |
| 20260507161203 | 12 | 275 | 1.6 | 4.8 | 0.00 | 0.00 | 0.00 | 79 | 1020.4 |
| 20260507160704 | 12 | 275 | 1.6 | 3.2 | 0.00 | 0.00 | 0.00 | 79 | 1020.4 |
| 20260507160205 | 12 | 188 | 0.0 | 3.2 | 0.00 | 0.00 | 0.00 | 80 | 1020.4 |
| 20260507155709 | 12 | 273 | 1.6 | 3.2 | 0.00 | 0.00 | 0.00 | 81 | 1020.5 |
| 20260507155704 | 12 | 273 | 0.0 | 3.2 | 0.00 | 0.00 | 0.00 | 81 | 1020.4 |
| 20260507154703 | 12 | 273 | 1.6 | 3.2 | 0.00 | 0.00 | 0.00 | 81 | 1020.4 |
| 20260507154204 | 12 | 258 | 1.6 | 3.2 | 0.00 | 0.00 | 0.00 | 82 | 1020.5 |
| 20260507153703 | 12 | 257 | 0.0 | 3.2 | 0.00 | 0.00 | 0.00 | 82 | 1020.6 |
| 20260507153203 | 12 | 257 | 0.0 | 3.2 | 0.00 | 0.00 | 0.00 | 81 | 1020.6 |
| 20260507152705 | 12 | 257 | 1.6 | 3.2 | 0.00 | 0.00 | 0.00 | 81 | 1020.6 |
| 20260507152205 | 11 | 257 | 1.6 | 3.2 | 0.00 | 0.00 | 0.00 | 82 | 1020.6 |
| 20260507151703 | 11 | 258 | 0.0 | 3.2 | 0.00 | 0.00 | 0.00 | 82 | 1020.6 |
| 20260507151204 | 11 | 255 | 1.6 | 4.8 | 0.00 | 0.00 | 0.00 | 83 | 1020.7 |
| 20260507150703 | 11 | 306 | 1.6 | 4.8 | 0.00 | 0.00 | 0.00 | 82 | 1020.6 |
| 20260507150203 | 11 | 261 | 1.6 | 4.8 | 0.00 | 0.00 | 0.00 | 83 | 1020.7 |
| 20260507145704 | 11 | 248 | 0.0 | 4.8 | 0.00 | 0.00 | 0.00 | 83 | 1020.7 |
| 20260507145202 | 11 | 250 | 1.6 | 3.2 | 0.00 | 0.00 | 0.00 | 84 | 1020.6 |
| 20260507144706 | 11 | 261 | 0.0 | 4.8 | 0.00 | 0.00 | 0.00 | 84 | 1020.6 |
| 20260507144702 | 11 | 261 | 1.6 | 3.2 | 0.00 | 0.00 | 0.00 | 83 | 1020.6 |
| 20260507143701 | 11 | 261 | 0.0 | 4.8 | 0.00 | 0.00 | 0.00 | 84 | 1020.6 |
| 20260507143206 | 11 | 262 | 1.6 | 3.2 | 0.00 | 0.00 | 0.00 | 84 | 1020.6 |
| 20260507143202 | 11 | 261 | 1.6 | 3.2 | 0.00 | 0.00 | 0.00 | 84 | 1020.6 |
| 20260507142814 | 11 | 239 | 1.6 | 3.2 | 0.00 | 0.00 | 0.00 | 85 | 1020.6 |
| 20260507141659 | 11 | 238 | 0.0 | 3.2 | 0.00 | 0.00 | 0.00 | 85 | 1020.5 |
| 20260507141201 | 11 | 244 | 0.0 | 3.2 | 0.00 | 0.00 | 0.00 | 85 | 1020.4 |
| 20260507140701 | 11 | 244 | 0.0 | 3.2 | 0.00 | 0.00 | 0.00 | 85 | 1020.5 |
| 20260507140159 | 11 | 244 | 0.0 | 3.2 | 0.00 | 0.00 | 0.00 | 85 | 1020.4 |
| 20260507135659 | 11 | 244 | 0.0 | 3.2 | 0.00 | 0.00 | 0.00 | 85 | 1020.4 |
| 20260507135203 | 11 | 242 | 0.0 | 4.8 | 0.00 | 0.00 | 0.00 | 85 | 1020.3 |
| 20260507135158 | 10 | 240 | 0.0 | 4.8 | 0.00 | 0.00 | 0.00 | 85 | 1020.3 |
| 20260507134158 | 10 | 234 | 1.6 | 4.8 | 0.00 | 0.00 | 0.00 | 85 | 1020.2 |
| 20260507133658 | 10 | 235 | 1.6 | 4.8 | 0.00 | 0.00 | 0.00 | 84 | 1020.3 |
| 20260507133157 | 10 | 248 | 0.0 | 3.2 | 0.00 | 0.00 | 0.00 | 85 | 1020.2 |
| 20260507132657 | 10 | 249 | 1.6 | 4.8 | 0.00 | 0.00 | 0.00 | 85 | 1020.2 |
| 20260507132155 | 10 | 238 | 1.6 | 4.8 | 0.00 | 0.00 | 0.00 | 85 | 1020.2 |
| 20260507131655 | 10 | 232 | 1.6 | 4.8 | 0.00 | 0.00 | 0.00 | 85 | 1020.3 |
| 20260507131155 | 10 | 229 | 1.6 | 4.8 | 0.00 | 0.00 | 0.00 | 85 | 1020.3 |
| 20260507130659 | 10 | 222 | 1.6 | 4.8 | 0.00 | 0.00 | 0.00 | 85 | 1020.3 |
| 20260507130655 | 10 | 239 | 1.6 | 4.8 | 0.00 | 0.00 | 0.00 | 85 | 1020.3 |
| 20260507125655 | 10 | 226 | 0.0 | 3.2 | 0.00 | 0.00 | 0.00 | 85 | 1020.3 |
| 20260507125154 | 10 | 225 | 0.0 | 3.2 | 0.00 | 0.00 | 0.00 | 85 | 1020.3 |
| 20260507124654 | 11 | 222 | 1.6 | 4.8 | 0.00 | 0.00 | 0.00 | 85 | 1020.4 |
| 20260507124153 | 11 | 221 | 1.6 | 4.8 | 0.00 | 0.00 | 0.00 | 84 | 1020.3 |
| 20260507123657 | 11 | 225 | 0.0 | 3.2 | 0.00 | 0.00 | 0.00 | 85 | 1020.4 |
| 20260507123653 | 11 | 225 | 0.0 | 0.0 | 0.00 | 0.00 | 0.00 | 85 | 1020.4 |
| 20260507122653 | 11 | 222 | 1.6 | 3.2 | 0.00 | 0.00 | 0.00 | 84 | 1020.4 |
| 20260507122154 | 11 | 221 | 1.6 | 4.8 | 0.00 | 0.00 | 0.00 | 85 | 1020.4 |
| 20260507121653 | 11 | 224 | 1.6 | 4.8 | 0.00 | 0.00 | 0.00 | 84 | 1020.5 |